�N����,�����b,�ŏ������i�x�j,���ϕ����i�x�j,�ő啗���i�x�j,�ŏ�����(m/s),���ϕ���(m/s),�ő啗��(m/s),�C��(���j,���x�i���j,�C��(hPa),�~�J��(mm),�~�J����(�b�j,�~�J���x(mm/h),�ő�~�J���x(mm/h),�~�Ђ傤��(hit/���u),�~�Ђ傤����(�b�j,�~�Ђ傤���x(hit/���uh),�ő�~�Ђ傤���x(hit/���uh),�q�[�^���x(���j,�q�[�^�[�d���iV),�d���d���iV),�Q�Ɠd���iV)
2015/01/05,10:10:01,136,147,153,1.4,1.8,2.1,20.2,55.7,1013.2,6.72,21700,0.0,////,0.0,0,0.0,////,22.5,0.0,12.3,3.523
2015/01/05,10:20:01,172,179,183,2.1,2.2,2.3,20.2,55.5,1013.1,0.00,0,0.0,////,0.0,0,0.0,////,22.5,0.0,12.3,3.511
2015/01/05,10:30:01,138,147,153,2.2,2.6,2.9,20.3,56.1,1013.0,0.00,0,0.0,////,0.0,0,0.0,////,22.2,0.0,12.3,3.510
2015/01/05,10:40:01,191,196,201,2.8,3.0,3.2,20.3,54.1,1012.9,0.00,0,0.0,////,0.0,0,0.0,////,22.2,0.0,12.3,3.514
2015/01/05,10:50:01,115,125,132,2.4,2.5,2.7,20.4,53.2,1012.7,0.00,0,0.0,////,0.0,0,0.0,////,22.4,0.0,12.3,3.513
2015/01/05,11:00:01,173,177,180,3.0,3.4,3.9,20.5,53.8,1012.7,0.00,0,0.0,////,0.0,0,0.0,////,22.5,0.0,12.3,3.515
2015/01/05,11:10:01,156,176,192,1.1,1.4,1.7,20.5,52.6,1012.6,0.00,0,0.0,////,0.0,0,0.0,////,22.5,0.0,12.3,3.513
2015/01/05,11:20:01,133,188,220,0.4,0.7,1.1,20.9,51.5,1012.4,0.00,0,0.0,////,0.0,0,0.0,////,23.2,0.0,12.3,3.513
2015/01/05,11:30:01,160,178,191,0.8,1.0,1.2,20.8,53.4,1012.3,0.00,0,0.0,////,0.0,0,0.0,////,23.4,0.0,12.3,3.511
2015/01/05,11:40:01,196,196,196,2.6,2.8,3.0,21.1,51.9,1012.3,0.00,0,0.0,////,0.0,0,0.0,////,23.7,0.0,12.3,3.513
2015/01/05,11:50:01,209,212,216,2.2,2.2,2.3,20.9,51.8,1012.1,0.00,0,0.0,////,0.0,0,0.0,////,23.2,0.0,12.3,3.513
2015/01/05,12:00:01,190,200,205,1.2,1.6,1.9,21.1,48.8,1011.9,0.00,0,0.0,////,0.0,0,0.0,////,23.6,0.0,12.3,3.514
2015/01/05,12:10:01,211,217,227,1.6,1.9,2.1,21.4,50.5,1011.6,0.00,0,0.0,////,0.0,0,0.0,////,24.1,0.0,12.3,3.515
2015/01/05,12:20:01,186,194,208,2.3,2.5,2.7,21.5,51.6,1011.5,0.00,0,0.0,////,0.0,0,0.0,////,23.9,0.0,12.3,3.513
2015/01/05,12:30:01,182,187,195,2.5,2.8,3.2,21.3,50.7,1011.3,0.00,0,0.0,////,0.0,0,0.0,////,23.9,0.0,12.3,3.511
2015/01/05,12:40:01,191,206,224,4.0,4.4,4.7,21.7,49.9,1011.1,0.00,0,0.0,////,0.0,0,0.0,////,24.6,0.0,12.3,3.513
2015/01/05,12:50:01,228,239,250,1.8,1.9,2.1,21.4,52.1,1010.8,0.00,0,0.0,////,0.0,0,0.0,////,24.1,0.0,12.3,3.514
2015/01/05,13:00:01,192,207,220,1.2,1.4,1.6,21.6,49.8,1010.7,0.00,0,0.0,////,0.0,0,0.0,////,25.0,0.0,12.3,3.513
2015/01/05,13:10:01,160,166,170,3.3,3.9,4.6,21.5,50.7,1010.5,0.00,0,0.0,////,0.0,0,0.0,////,24.6,0.0,12.3,3.513
2015/01/05,13:20:01,110,141,164,0.5,0.7,0.8,21.6,51.4,1010.4,0.00,0,0.0,////,0.0,0,0.0,////,23.6,0.0,12.3,3.513
2015/01/05,13:30:01,208,219,226,2.8,3.0,3.2,21.8,50.3,1010.2,0.00,0,0.0,////,0.0,0,0.0,////,25.0,0.0,12.3,3.513
2015/01/05,13:40:01,183,215,243,0.6,0.9,1.1,21.8,51.6,1010.2,0.00,0,0.0,////,0.0,0,0.0,////,24.8,0.0,12.3,3.513
2015/01/05,13:50:01,198,203,210,1.9,2.2,2.4,21.7,50.4,1010.1,0.00,0,0.0,////,0.0,0,0.0,////,24.4,0.0,12.3,3.513
2015/01/05,14:00:01,157,158,159,2.7,2.9,3.1,21.9,51.0,1010.2,0.00,0,0.0,////,0.0,0,0.0,////,24.3,0.0,12.3,3.513
2015/01/05,14:10:01,166,188,200,2.7,3.1,3.7,21.7,51.0,1010.1,0.00,0,0.0,////,0.0,0,0.0,////,24.1,0.0,12.3,3.513
2015/01/05,14:20:01,210,219,233,1.7,2.1,2.3,21.5,51.4,1010.2,0.00,0,0.0,////,0.0,0,0.0,////,24.3,0.0,12.3,3.513
2015/01/05,14:30:01,226,240,256,0.8,1.0,1.1,21.2,52.4,1010.1,0.00,0,0.0,////,0.0,0,0.0,////,22.7,0.0,12.3,3.513
2015/01/05,14:40:01,182,185,188,2.6,2.7,2.8,21.7,52.4,1010.1,0.00,0,0.0,////,0.0,0,0.0,////,23.4,0.0,12.3,3.514
2015/01/05,14:50:01,212,224,231,1.1,1.4,1.8,21.5,53.6,1010.0,0.00,0,0.0,////,0.0,0,0.0,////,23.4,0.0,12.3,3.513
2015/01/05,15:00:01,226,246,285,0.4,0.9,1.3,21.8,52.6,1010.0,0.00,0,0.0,////,0.0,0,0.0,////,24.1,0.0,12.3,3.514
2015/01/05,15:10:01,190,192,193,2.5,3.0,3.3,21.5,51.6,1009.9,0.00,0,0.0,////,0.0,0,0.0,////,23.9,0.0,12.3,3.513
2015/01/05,15:20:01,187,189,190,2.2,2.6,3.1,21.3,54.2,1009.9,0.00,0,0.0,////,0.0,0,0.0,////,22.9,0.0,12.2,3.513
2015/01/05,15:30:01,139,141,143,1.6,1.9,2.1,20.8,57.1,1010.0,0.00,0,0.0,////,0.0,0,0.0,////,22.0,0.0,12.3,3.513
2015/01/05,15:40:01,072,073,076,0.3,0.5,0.6,21.0,57.8,1010.0,0.00,0,0.0,////,0.0,0,0.0,////,22.0,0.0,12.4,3.514
2015/01/05,15:50:01,168,180,186,3.5,3.8,4.1,21.2,54.0,1010.1,0.00,0,0.0,////,0.0,0,0.0,////,23.4,0.0,12.3,3.513
2015/01/05,16:00:01,170,172,173,2.2,2.6,2.9,21.2,55.1,1010.1,0.00,0,0.0,////,0.0,0,0.0,////,22.7,0.0,12.3,3.513
2015/01/05,16:10:01,132,147,157,1.5,1.9,2.3,20.9,55.9,1010.1,0.00,0,0.0,////,0.0,0,0.0,////,22.0,0.0,12.3,3.513
2015/01/05,16:20:01,182,186,193,2.4,2.6,2.8,20.7,56.5,1010.0,0.00,0,0.0,////,0.0,0,0.0,////,21.3,0.0,12.3,3.511
2015/01/05,16:30:01,136,149,162,1.1,1.4,1.8,20.4,57.3,1010.0,0.00,0,0.0,////,0.0,0,0.0,////,21.0,0.0,12.3,3.511
2015/01/05,16:40:01,115,117,122,2.5,2.7,2.9,20.3,58.7,1010.0,0.00,0,0.0,////,0.0,0,0.0,////,20.5,0.0,12.3,3.513
2015/01/05,16:50:01,161,171,180,1.5,1.6,1.7,20.0,60.6,1010.1,0.00,0,0.0,////,0.0,0,0.0,////,20.1,0.0,12.3,3.514
2015/01/05,17:00:01,128,140,155,0.9,1.2,1.4,19.7,61.5,1010.2,0.00,0,0.0,////,0.0,0,0.0,////,19.6,0.0,12.4,3.513
2015/01/05,17:10:01,135,141,145,1.3,1.4,1.5,19.5,62.8,1010.2,0.00,0,0.0,////,0.0,0,0.0,////,19.1,0.0,12.3,3.514
2015/01/05,17:20:01,143,150,155,2.5,2.6,2.7,19.3,63.6,1010.3,0.00,0,0.0,////,0.0,0,0.0,////,18.6,0.0,12.3,3.515
2015/01/05,17:30:01,151,159,164,0.9,1.0,1.2,19.2,64.4,1010.4,0.00,0,0.0,////,0.0,0,0.0,////,18.1,0.0,12.3,3.514
2015/01/05,17:40:01,151,156,163,2.2,3.2,4.2,19.0,65.2,1010.5,0.00,0,0.0,////,0.0,0,0.0,////,17.7,0.0,12.3,3.513
2015/01/05,17:50:01,144,148,153,1.6,1.7,1.8,18.9,65.5,1010.6,0.00,0,0.0,////,0.0,0,0.0,////,17.5,0.0,12.3,3.514
2015/01/05,18:00:01,127,135,142,1.6,2.1,3.0,18.9,65.6,1010.6,0.00,0,0.0,////,0.0,0,0.0,////,17.4,0.0,12.3,3.513
2015/01/05,18:10:01,146,155,170,1.6,1.8,2.0,18.8,66.1,1010.6,0.00,0,0.0,////,0.0,0,0.0,////,17.2,0.0,12.3,3.513
2015/01/05,18:20:01,159,165,175,1.9,2.5,2.9,18.8,66.4,1010.7,0.00,0,0.0,////,0.0,0,0.0,////,17.2,0.0,12.3,3.513
2015/01/05,18:30:01,134,146,161,1.9,2.0,2.1,18.7,66.5,1010.8,0.00,0,0.0,////,0.0,0,0.0,////,17.2,0.0,12.3,3.513
2015/01/05,18:40:01,135,138,140,1.8,2.2,2.7,18.6,67.2,1010.8,0.00,0,0.0,////,0.0,0,0.0,////,17.0,0.0,12.3,3.513
2015/01/05,18:50:01,157,161,166,1.8,1.9,2.0,18.7,67.3,1010.8,0.00,0,0.0,////,0.0,0,0.0,////,17.2,0.0,12.3,3.513
2015/01/05,19:00:01,131,144,159,1.1,1.3,1.4,18.6,67.7,1010.9,0.00,0,0.0,////,0.0,0,0.0,////,17.0,0.0,12.3,3.514
2015/01/05,19:10:01,145,153,157,1.2,1.5,1.8,18.6,67.1,1010.9,0.00,0,0.0,////,0.0,0,0.0,////,16.9,0.0,12.3,3.513
2015/01/05,19:20:01,140,147,157,1.4,1.6,1.7,18.5,67.4,1010.9,0.00,0,0.0,////,0.0,0,0.0,////,16.9,0.0,12.3,3.513
2015/01/05,19:30:01,136,141,148,1.3,1.4,1.5,18.6,67.4,1011.0,0.00,0,0.0,////,0.0,0,0.0,////,17.0,0.0,12.3,3.513
2015/01/05,19:40:01,153,158,161,1.5,1.7,1.8,18.6,67.8,1011.0,0.00,0,0.0,////,0.0,0,0.0,////,16.2,0.0,12.3,3.513
2015/01/05,19:50:01,154,167,177,1.6,1.8,2.1,18.5,68.0,1011.0,0.00,0,0.0,////,0.0,0,0.0,////,17.0,0.0,12.3,3.514
2015/01/05,20:00:01,140,142,145,1.1,1.3,1.6,18.4,66.7,1010.9,0.00,0,0.0,////,0.0,0,0.0,////,16.9,0.0,12.3,3.513
2015/01/05,20:10:01,158,162,169,1.2,1.5,1.8,18.3,66.0,1010.8,0.00,0,0.0,////,0.0,0,0.0,////,16.7,0.0,12.3,3.513
2015/01/05,20:20:01,145,151,158,2.4,2.5,2.7,18.6,67.0,1010.8,0.00,0,0.0,////,0.0,0,0.0,////,17.0,0.0,12.3,3.513
2015/01/05,20:30:01,157,158,159,1.9,2.3,2.6,18.6,67.0,1010.7,0.00,0,0.0,////,0.0,0,0.0,////,17.0,0.0,12.3,3.514
2015/01/05,20:40:01,157,161,163,1.3,1.5,1.7,18.4,67.3,1010.7,0.00,0,0.0,////,0.0,0,0.0,////,16.9,0.0,12.3,3.514
2015/01/05,20:50:01,146,149,156,1.4,1.5,1.6,18.5,65.7,1010.6,0.00,0,0.0,////,0.0,0,0.0,////,16.7,0.0,12.3,3.513
2015/01/05,21:00:01,157,169,177,1.4,1.5,1.6,18.4,65.2,1010.6,0.00,0,0.0,////,0.0,0,0.0,////,16.7,0.0,12.3,3.511
2015/01/05,21:10:01,148,154,160,1.7,1.9,2.1,18.4,64.8,1010.6,0.00,0,0.0,////,0.0,0,0.0,////,17.4,0.0,12.3,3.511
2015/01/05,21:20:01,164,168,176,1.2,1.3,1.5,18.4,64.2,1010.6,0.00,0,0.0,////,0.0,0,0.0,////,16.5,0.0,12.3,3.513
2015/01/05,21:30:01,141,149,159,1.5,2.0,2.3,18.3,63.8,1010.5,0.00,0,0.0,////,0.0,0,0.0,////,16.7,0.0,12.3,3.515
2015/01/05,21:40:01,137,162,176,1.1,1.2,1.3,18.5,64.0,1010.4,0.00,0,0.0,////,0.0,0,0.0,////,16.7,0.0,12.3,3.511
2015/01/05,21:50:01,163,165,166,1.6,2.0,2.6,18.5,63.2,1010.3,0.00,0,0.0,////,0.0,0,0.0,////,17.0,0.0,12.3,3.513
2015/01/05,22:00:01,164,166,168,2.4,2.5,2.6,18.5,63.1,1010.3,0.00,0,0.0,////,0.0,0,0.0,////,16.7,0.0,12.3,3.514
2015/01/05,22:10:01,147,158,165,1.2,1.3,1.6,18.4,63.9,1010.2,0.00,0,0.0,////,0.0,0,0.0,////,16.7,0.0,12.3,3.514
2015/01/05,22:20:01,177,180,183,1.7,2.0,2.2,18.3,64.5,1010.1,0.00,0,0.0,////,0.0,0,0.0,////,16.7,0.0,12.3,3.514
2015/01/05,22:30:01,160,164,166,1.6,1.9,2.1,18.4,62.6,1010.0,0.00,0,0.0,////,0.0,0,0.0,////,16.7,0.0,12.3,3.513
2015/01/05,22:40:01,179,183,187,1.0,1.2,1.4,18.4,61.9,1010.0,0.00,0,0.0,////,0.0,0,0.0,////,16.7,0.0,12.3,3.514
2015/01/05,22:50:01,169,172,173,1.1,1.2,1.3,18.3,62.2,1009.9,0.00,0,0.0,////,0.0,0,0.0,////,16.5,0.0,12.3,3.514
2015/01/05,23:00:01,191,196,201,1.0,1.1,1.2,18.1,62.5,1009.8,0.00,0,0.0,////,0.0,0,0.0,////,16.5,0.0,12.3,3.513
2015/01/05,23:10:01,159,160,161,1.4,1.6,1.7,18.0,63.7,1009.7,0.00,0,0.0,////,0.0,0,0.0,////,16.3,0.0,12.3,3.513
2015/01/05,23:20:01,165,172,178,1.7,1.8,1.9,18.0,63.9,1009.6,0.00,0,0.0,////,0.0,0,0.0,////,16.0,0.0,12.3,3.514
2015/01/05,23:30:01,189,191,194,1.8,2.0,2.3,18.1,63.5,1009.6,0.00,0,0.0,////,0.0,0,0.0,////,16.2,0.0,12.3,3.513
2015/01/05,23:40:01,211,213,216,1.3,1.4,1.5,18.1,63.3,1009.6,0.00,0,0.0,////,0.0,0,0.0,////,16.2,0.0,12.3,3.513
2015/01/05,23:50:01,205,206,208,1.6,1.7,1.7,18.2,64.1,1009.6,0.00,0,0.0,////,0.0,0,0.0,////,16.2,0.0,12.3,3.516
2015/01/06,00:00:01,208,211,214,1.6,1.7,1.8,18.0,66.1,1009.5,0.00,0,0.0,////,0.0,0,0.0,////,16.3,0.0,12.3,3.513
2015/01/06,00:10:01,170,176,180,1.7,1.9,2.1,17.8,66.8,1009.5,0.00,0,0.0,////,0.0,0,0.0,////,16.2,0.0,12.3,3.513
2015/01/06,00:20:01,201,203,204,1.6,1.7,1.7,17.8,67.6,1009.4,0.00,0,0.0,////,0.0,0,0.0,////,15.8,0.0,12.3,3.514
2015/01/06,00:30:01,171,172,174,1.3,1.4,1.5,17.6,67.8,1009.3,0.00,0,0.0,////,0.0,0,0.0,////,15.8,0.0,12.3,3.513
2015/01/06,00:40:01,169,170,170,1.6,1.6,1.7,17.4,68.9,1009.2,0.00,0,0.0,////,0.0,0,0.0,////,15.6,0.0,12.3,3.514
2015/01/06,00:50:01,161,162,163,1.4,1.5,1.7,17.3,68.8,1009.0,0.00,0,0.0,////,0.0,0,0.0,////,15.6,0.0,12.3,3.513
2015/01/06,01:00:01,169,173,176,1.2,1.4,1.6,17.2,68.8,1009.0,0.00,0,0.0,////,0.0,0,0.0,////,15.5,0.0,12.3,3.514
2015/01/06,01:10:01,182,185,189,1.6,1.7,1.8,17.4,68.0,1008.8,0.00,0,0.0,////,0.0,0,0.0,////,15.5,0.0,12.3,3.513
2015/01/06,01:20:01,183,191,201,1.0,1.2,1.3,17.4,66.4,1008.6,0.00,0,0.0,////,0.0,0,0.0,////,15.5,0.0,12.3,3.511
2015/01/06,01:30:01,209,213,216,1.7,1.8,1.9,17.4,65.2,1008.6,0.00,0,0.0,////,0.0,0,0.0,////,15.6,0.0,12.3,3.513
2015/01/06,01:40:01,202,209,214,0.9,1.0,1.1,17.8,65.0,1008.7,0.00,0,0.0,////,0.0,0,0.0,////,15.8,0.0,12.3,3.513
2015/01/06,01:50:01,230,235,244,1.5,1.7,1.9,18.0,65.5,1008.7,0.00,0,0.0,////,0.0,0,0.0,////,16.0,0.0,12.3,3.513
2015/01/06,02:00:01,221,225,230,1.1,1.3,1.5,18.1,66.2,1008.8,0.00,0,0.0,////,0.0,0,0.0,////,16.3,0.0,12.3,3.513
2015/01/06,02:10:01,174,177,180,1.8,1.9,2.0,18.0,66.6,1008.8,0.00,0,0.0,////,0.0,0,0.0,////,16.3,0.0,12.3,3.513
2015/01/06,02:20:01,173,180,185,1.5,1.7,2.0,17.9,66.9,1008.8,0.00,0,0.0,////,0.0,0,0.0,////,16.2,0.0,12.3,3.513
2015/01/06,02:30:01,159,163,171,1.5,1.7,1.8,17.3,68.8,1008.6,0.00,0,0.0,////,0.0,0,0.0,////,15.6,0.0,12.3,3.514
2015/01/06,02:40:01,164,166,168,1.7,1.8,1.9,17.2,69.6,1008.5,0.00,0,0.0,////,0.0,0,0.0,////,16.0,0.0,12.3,3.514
2015/01/06,02:50:01,146,150,156,1.0,1.1,1.2,17.1,70.3,1008.2,0.00,0,0.0,////,0.0,0,0.0,////,15.5,0.0,12.3,3.514
2015/01/06,03:00:01,166,167,169,1.4,1.5,1.6,17.3,70.7,1008.1,0.00,0,0.0,////,0.0,0,0.0,////,15.5,0.0,12.3,3.511
2015/01/06,03:10:01,168,172,176,1.5,1.6,1.8,17.7,71.0,1008.2,0.00,0,0.0,////,0.0,0,0.0,////,16.0,0.0,12.3,3.513
2015/01/06,03:20:01,182,186,190,1.2,1.5,1.9,17.7,70.9,1008.2,0.00,0,0.0,////,0.0,0,0.0,////,15.8,0.0,12.3,3.514
2015/01/06,03:30:01,124,129,136,0.9,0.9,1.0,17.6,71.5,1008.2,0.00,0,0.0,////,0.0,0,0.0,////,15.6,0.0,12.3,3.513
2015/01/06,03:40:01,136,144,150,0.4,0.6,0.8,17.6,71.6,1008.2,0.00,0,0.0,////,0.0,0,0.0,////,15.8,0.0,12.3,3.514
2015/01/06,03:50:01,194,195,196,1.1,1.3,1.4,17.7,71.7,1008.3,0.00,0,0.0,////,0.0,0,0.0,////,15.8,0.0,12.3,3.515
2015/01/06,04:00:01,202,207,211,0.7,0.8,0.9,17.8,71.9,1008.4,0.00,0,0.0,////,0.0,0,0.0,////,16.2,0.0,12.3,3.513
2015/01/06,04:10:01,186,188,190,1.2,1.3,1.4,18.0,71.6,1008.4,0.00,0,0.0,////,0.0,0,0.0,////,16.5,0.0,12.3,3.513
2015/01/06,04:20:01,176,177,178,1.4,1.5,1.6,17.9,71.9,1008.3,0.00,0,0.0,////,0.0,0,0.0,////,16.2,0.0,12.3,3.514
2015/01/06,04:30:01,184,188,192,1.2,1.3,1.5,17.6,72.9,1008.2,0.00,0,0.0,////,0.0,0,0.0,////,16.0,0.0,12.3,3.513
2015/01/06,04:40:01,174,176,178,1.1,1.2,1.3,17.6,73.2,1008.2,0.00,0,0.0,////,0.0,0,0.0,////,16.0,0.0,12.3,3.513
2015/01/06,04:50:01,196,197,198,0.9,1.0,1.1,17.7,73.2,1008.1,0.00,0,0.0,////,0.0,0,0.0,////,16.0,0.0,12.3,3.515
2015/01/06,05:00:01,172,174,176,1.6,1.8,1.9,17.8,72.9,1008.0,0.00,0,0.0,////,0.0,0,0.0,////,16.2,0.0,12.3,3.514
2015/01/06,05:10:01,206,211,217,1.6,1.8,1.9,17.8,73.7,1007.9,0.00,0,0.0,////,0.0,0,0.0,////,16.3,0.0,12.3,3.514
2015/01/06,05:20:01,192,196,200,1.6,1.8,2.1,18.0,74.0,1007.9,0.00,0,0.0,////,0.0,0,0.0,////,16.5,0.0,12.3,3.513
2015/01/06,05:30:01,197,211,219,1.4,1.6,1.7,18.1,75.0,1007.9,0.00,0,0.0,////,0.0,0,0.0,////,16.3,0.0,12.3,3.513
2015/01/06,05:40:01,197,212,220,1.5,1.7,2.1,18.4,75.5,1008.0,0.00,0,0.0,////,0.0,0,0.0,////,16.7,0.0,12.3,3.511
2015/01/06,05:50:01,191,199,213,2.8,3.2,3.5,18.7,74.7,1008.0,0.00,0,0.0,////,0.0,0,0.0,////,17.2,0.0,12.3,3.511
2015/01/06,06:00:01,178,186,196,0.9,1.0,1.2,18.7,74.6,1007.9,0.00,0,0.0,////,0.0,0,0.0,////,17.7,0.0,12.3,3.513
2015/01/06,06:10:01,184,192,200,1.6,1.8,2.0,18.6,74.2,1007.8,0.00,0,0.0,////,0.0,0,0.0,////,17.2,0.0,12.3,3.513
2015/01/06,06:20:01,204,213,218,2.3,2.4,2.4,18.6,74.3,1007.7,0.00,0,0.0,////,0.0,0,0.0,////,17.2,0.0,12.3,3.514
2015/01/06,06:30:01,197,200,203,1.3,1.4,1.5,18.8,74.2,1007.8,0.00,0,0.0,////,0.0,0,0.0,////,17.5,0.0,12.3,3.514
2015/01/06,06:40:01,222,229,234,1.9,2.6,3.1,19.1,74.2,1007.8,0.00,0,0.0,////,0.0,0,0.0,////,17.7,0.0,12.3,3.513
2015/01/06,06:50:01,194,200,211,2.0,2.3,2.7,19.3,73.2,1007.7,0.00,0,0.0,////,0.0,0,0.0,////,18.1,0.0,12.3,3.513
2015/01/06,07:00:01,204,207,210,2.8,3.0,3.4,19.3,73.1,1007.7,0.00,0,0.0,////,0.0,0,0.0,////,18.4,0.0,12.3,3.513
2015/01/06,07:10:01,204,206,209,2.2,2.6,3.3,19.2,73.1,1007.7,0.00,0,0.0,////,0.0,0,0.0,////,18.1,0.0,12.3,3.514
2015/01/06,07:20:01,202,203,204,1.9,2.0,2.1,19.2,73.3,1007.8,0.00,0,0.0,////,0.0,0,0.0,////,17.9,0.0,12.3,3.514
2015/01/06,07:30:01,222,233,254,1.9,2.0,2.2,19.4,73.1,1008.0,0.00,0,0.0,////,0.0,0,0.0,////,18.1,0.0,12.3,3.513
2015/01/06,07:40:01,240,249,256,4.2,4.8,5.2,19.5,72.8,1008.1,0.00,0,0.0,////,0.0,0,0.0,////,18.4,0.0,12.3,3.513
2015/01/06,07:50:01,223,230,236,1.7,2.4,3.2,19.8,72.8,1008.2,0.00,0,0.0,////,0.0,0,0.0,////,18.7,0.0,12.3,3.511
2015/01/06,08:00:01,214,218,224,2.7,3.0,3.2,19.9,72.8,1008.3,0.00,0,0.0,////,0.0,0,0.0,////,18.7,0.0,12.3,3.513
2015/01/06,08:10:01,197,205,213,2.7,2.9,3.4,20.0,73.4,1008.2,0.00,0,0.0,////,0.0,0,0.0,////,18.9,0.0,12.3,3.513
2015/01/06,08:20:01,201,214,224,3.0,3.4,3.7,20.0,72.4,1008.3,0.00,0,0.0,////,0.0,0,0.0,////,19.1,0.0,12.3,3.513
2015/01/06,08:30:01,182,191,208,1.9,2.2,2.7,20.0,72.7,1008.3,0.00,0,0.0,////,0.0,0,0.0,////,19.1,0.0,12.3,3.514
2015/01/06,08:40:01,221,235,250,3.9,4.8,5.9,20.1,72.8,1008.3,0.00,0,0.0,////,0.0,0,0.0,////,19.1,0.0,12.3,3.511
2015/01/06,08:50:01,203,213,229,3.3,3.5,3.8,20.3,73.7,1008.4,0.00,0,0.0,////,0.0,0,0.0,////,19.4,0.0,12.3,3.514
2015/01/06,09:00:01,217,223,229,3.9,4.4,5.2,20.3,72.7,1008.5,0.00,0,0.0,////,0.0,0,0.0,////,19.6,0.0,12.3,3.513
2015/01/06,09:10:01,210,215,218,3.5,4.5,5.4,20.3,72.4,1008.4,0.00,0,0.0,////,0.0,0,0.0,////,19.8,0.0,12.3,3.511
2015/01/06,09:20:01,198,207,214,5.0,5.9,6.9,20.4,71.2,1008.1,0.00,0,0.0,////,0.0,0,0.0,////,20.1,0.0,12.3,3.513
2015/01/06,09:30:01,208,213,218,2.8,3.6,4.3,20.5,71.0,1008.1,0.00,0,0.0,////,0.0,0,0.0,////,20.1,0.0,12.3,3.513
2015/01/06,09:40:01,227,232,236,1.6,2.0,2.4,20.7,70.9,1008.4,0.00,0,0.0,////,0.0,0,0.0,////,20.5,0.0,12.3,3.511
2015/01/06,09:50:01,213,223,234,4.1,4.2,4.2,20.8,70.8,1008.3,0.00,0,0.0,////,0.0,0,0.0,////,20.6,0.0,12.3,3.513
2015/01/06,10:00:01,227,231,238,5.7,6.5,7.3,20.8,70.7,1008.2,0.00,0,0.0,////,0.0,0,0.0,////,20.6,0.0,12.3,3.514
2015/01/06,10:10:01,213,217,222,3.9,4.4,4.7,20.9,69.7,1008.1,0.00,0,0.0,////,0.0,0,0.0,////,21.0,0.0,12.3,3.513
2015/01/06,10:20:01,183,200,211,3.4,4.1,4.7,21.2,70.1,1008.2,0.00,0,0.0,////,0.0,0,0.0,////,21.5,0.0,12.3,3.514
2015/01/06,10:30:01,218,219,222,3.3,3.4,3.6,21.3,69.7,1007.9,0.00,0,0.0,////,0.0,0,0.0,////,21.7,0.0,12.3,3.513
2015/01/06,10:40:01,216,225,229,3.6,3.9,4.2,21.5,68.1,1007.8,0.00,0,0.0,////,0.0,0,0.0,////,22.5,0.0,12.3,3.514
2015/01/06,10:50:01,214,221,229,2.5,3.2,3.8,21.7,68.2,1007.6,0.00,0,0.0,////,0.0,0,0.0,////,23.1,0.0,12.3,3.511
2015/01/06,11:00:01,210,215,222,4.6,4.9,5.1,22.1,67.7,1007.5,0.00,0,0.0,////,0.0,0,0.0,////,24.1,0.0,12.3,3.515
2015/01/06,11:10:01,229,233,235,3.2,3.4,3.7,22.3,67.3,1007.3,0.00,0,0.0,////,0.0,0,0.0,////,24.3,0.0,12.3,3.513
2015/01/06,11:20:01,207,245,279,1.3,1.8,2.1,22.1,66.5,1007.2,0.00,0,0.0,////,0.0,0,0.0,////,23.7,0.0,12.3,3.513
2015/01/06,11:30:01,225,234,248,2.9,3.3,3.7,22.0,66.9,1007.1,0.00,0,0.0,////,0.0,0,0.0,////,23.4,0.0,12.3,3.511
2015/01/06,11:40:01,230,233,237,4.1,4.8,5.7,22.0,66.4,1006.9,0.00,0,0.0,////,0.0,0,0.0,////,23.6,0.0,12.3,3.511
2015/01/06,11:50:01,241,251,259,5.4,7.5,8.9,21.6,67.6,1006.9,0.00,0,0.0,////,0.0,0,0.0,////,22.7,0.0,12.3,3.511
2015/01/06,12:00:01,234,236,239,5.6,5.7,5.9,21.6,66.9,1006.8,0.00,0,0.0,////,0.0,0,0.0,////,23.1,0.0,12.2,3.511
2015/01/06,12:10:01,229,236,242,3.1,3.5,3.7,21.6,67.4,1006.6,0.00,0,0.0,////,0.0,0,0.0,////,22.7,0.0,12.3,3.513
2015/01/06,12:20:01,236,243,252,3.3,3.6,4.0,21.3,68.5,1006.3,0.00,0,0.0,////,0.0,0,0.0,////,22.0,0.0,12.3,3.513
2015/01/06,12:30:01,227,231,236,4.1,4.6,5.1,21.7,67.1,1006.2,0.00,0,0.0,////,0.0,0,0.0,////,22.7,0.0,12.3,3.511
2015/01/06,12:40:01,211,236,252,5.7,6.2,7.0,22.0,68.3,1006.1,0.00,0,0.0,////,0.0,0,0.0,////,23.2,0.0,12.3,3.511
2015/01/06,12:50:01,217,228,234,3.2,4.7,6.4,22.1,68.4,1005.9,0.00,0,0.0,////,0.0,0,0.0,////,23.4,0.0,12.3,3.513
2015/01/06,13:00:01,213,233,249,4.4,5.3,5.9,21.8,68.4,1005.7,0.00,0,0.0,////,0.0,0,0.0,////,22.5,0.0,12.2,3.511
2015/01/06,13:10:01,221,228,239,4.4,6.0,7.6,21.9,68.8,1005.5,0.00,0,0.0,////,0.0,0,0.0,////,22.9,0.0,12.3,3.513
2015/01/06,13:20:01,230,235,241,6.7,7.1,7.6,21.8,69.5,1005.4,0.00,0,0.0,////,0.0,0,0.0,////,22.7,0.0,12.3,3.509
2015/01/06,13:30:01,227,229,234,5.0,6.0,6.9,22.1,69.4,1005.2,0.00,0,0.0,////,0.0,0,0.0,////,23.1,0.0,12.3,3.513
2015/01/06,13:40:01,227,231,237,6.2,6.8,7.2,22.3,68.7,1005.2,0.00,0,0.0,////,0.0,0,0.0,////,23.6,0.0,12.3,3.513
2015/01/06,13:50:01,201,213,226,2.5,2.9,3.3,21.9,69.7,1005.1,0.00,0,0.0,////,0.0,0,0.0,////,22.7,0.0,12.3,3.511
2015/01/06,14:00:01,233,237,244,3.9,4.9,5.8,21.7,71.7,1005.1,0.00,0,0.0,////,0.0,0,0.0,////,22.0,0.0,12.3,3.513
2015/01/06,14:10:01,217,220,222,3.5,4.5,5.7,21.4,71.6,1005.0,0.00,0,0.0,////,0.0,0,0.0,////,21.2,0.0,12.3,3.513
2015/01/06,14:20:01,216,224,238,4.7,5.2,6.1,21.4,73.0,1005.0,0.00,0,0.0,////,0.0,0,0.0,////,20.8,0.0,12.3,3.513
2015/01/06,14:30:01,213,223,228,4.7,5.4,6.2,21.4,74.2,1004.9,0.00,0,0.0,////,0.0,0,0.0,////,20.6,0.0,12.3,3.513
2015/01/06,14:40:01,214,221,228,3.6,3.9,4.1,20.4,80.4,1005.7,0.95,460,0.2,////,0.0,0,0.0,////,18.9,0.0,12.3,3.514
2015/01/06,14:50:01,319,322,329,3.8,4.2,4.5,19.7,83.7,1005.9,0.01,140,0.0,////,0.0,0,0.0,////,17.9,0.0,12.3,3.513
2015/01/06,15:00:01,315,327,341,1.6,2.0,2.2,19.0,84.8,1005.8,0.01,100,0.0,////,0.0,0,0.0,////,17.5,0.0,12.3,3.513
2015/01/06,15:10:01,327,334,341,3.1,4.3,4.9,19.0,84.6,1005.8,0.00,0,0.0,////,0.0,0,0.0,////,17.4,0.0,12.3,3.513
2015/01/06,15:20:01,333,335,337,3.7,4.5,4.9,19.4,80.9,1005.9,0.00,0,0.0,////,0.0,0,0.0,////,18.2,0.0,12.3,3.513
2015/01/06,15:30:01,334,344,349,4.9,5.7,6.1,19.6,80.4,1005.9,0.00,0,0.0,////,0.0,0,0.0,////,18.2,0.0,12.3,3.513
2015/01/06,15:40:01,336,338,339,6.8,7.2,7.4,19.5,78.4,1005.9,0.00,0,0.0,////,0.0,0,0.0,////,18.4,0.0,12.3,3.513
2015/01/06,15:50:01,323,329,335,3.9,4.6,5.2,19.5,77.0,1006.0,0.00,0,0.0,////,0.0,0,0.0,////,18.7,0.0,12.3,3.515
2015/01/06,16:00:01,340,346,356,2.5,3.4,4.6,19.5,75.2,1006.2,0.00,0,0.0,////,0.0,0,0.0,////,19.3,0.0,12.3,3.513
2015/01/06,16:10:01,342,343,343,3.9,4.3,4.9,19.6,75.4,1006.3,0.00,0,0.0,////,0.0,0,0.0,////,18.9,0.0,12.3,3.514
2015/01/06,16:20:01,342,343,344,5.9,6.4,7.2,19.7,76.7,1006.4,0.00,0,0.0,////,0.0,0,0.0,////,18.7,0.0,12.3,3.513
2015/01/06,16:30:01,316,328,344,3.0,3.7,4.2,19.6,75.9,1006.6,0.00,0,0.0,////,0.0,0,0.0,////,18.7,0.0,12.3,3.511
2015/01/06,16:40:01,328,338,350,2.3,2.9,3.4,19.4,74.0,1006.7,0.00,0,0.0,////,0.0,0,0.0,////,18.6,0.0,12.3,3.513
2015/01/06,16:50:01,335,344,352,4.0,4.4,4.7,19.6,75.7,1006.8,0.00,0,0.0,////,0.0,0,0.0,////,18.6,0.0,12.3,3.513
2015/01/06,17:00:01,348,351,354,5.9,6.3,6.8,19.4,74.2,1006.9,0.00,0,0.0,////,0.0,0,0.0,////,18.6,0.0,12.3,3.513
2015/01/06,17:10:01,356,011,032,4.6,5.1,5.3,19.3,74.1,1006.9,0.00,0,0.0,////,0.0,0,0.0,////,18.6,0.0,12.3,3.513
2015/01/06,17:20:01,336,342,352,4.0,4.5,5.4,19.3,72.7,1006.9,0.00,0,0.0,////,0.0,0,0.0,////,18.4,0.0,12.3,3.514
2015/01/06,17:30:01,347,355,000,2.7,3.1,3.4,19.2,73.2,1006.9,0.00,0,0.0,////,0.0,0,0.0,////,18.2,0.0,12.3,3.514
2015/01/06,17:40:01,344,348,350,6.4,7.1,7.9,19.1,74.1,1006.9,0.00,0,0.0,////,0.0,0,0.0,////,18.2,0.0,12.3,3.513
2015/01/06,17:50:01,009,011,013,3.7,4.2,4.5,19.0,73.1,1007.0,0.00,0,0.0,////,0.0,0,0.0,////,17.9,0.0,12.3,3.513
2015/01/06,18:00:01,345,352,358,4.9,5.4,5.7,18.9,73.4,1007.0,0.00,0,0.0,////,0.0,0,0.0,////,17.7,0.0,12.3,3.513
2015/01/06,18:10:01,335,341,351,5.1,5.7,6.4,18.7,73.7,1007.1,0.00,0,0.0,////,0.0,0,0.0,////,17.7,0.0,12.3,3.514
2015/01/06,18:20:01,006,017,036,3.8,4.5,5.5,18.7,73.9,1007.1,0.00,0,0.0,////,0.0,0,0.0,////,17.7,0.0,12.3,3.515
2015/01/06,18:30:01,351,355,359,3.4,4.1,5.1,18.6,73.0,1007.3,0.00,0,0.0,////,0.0,0,0.0,////,17.7,0.0,12.3,3.511
2015/01/06,18:40:01,355,008,023,3.8,4.1,4.3,18.5,72.1,1007.5,0.00,0,0.0,////,0.0,0,0.0,////,17.7,0.0,12.3,3.511
2015/01/06,18:50:01,338,354,003,3.5,3.8,4.1,18.7,74.4,1007.6,0.00,0,0.0,////,0.0,0,0.0,////,17.5,0.0,12.3,3.513
2015/01/06,19:00:01,350,357,005,4.0,4.2,4.6,18.6,72.1,1007.6,0.00,0,0.0,////,0.0,0,0.0,////,17.7,0.0,12.3,3.513
2015/01/06,19:10:01,342,347,351,5.2,5.5,5.8,18.7,73.5,1007.7,0.00,0,0.0,////,0.0,0,0.0,////,17.5,0.0,12.3,3.515
2015/01/06,19:20:01,333,336,339,5.3,5.5,5.8,18.6,72.9,1007.8,0.00,0,0.0,////,0.0,0,0.0,////,17.5,0.0,12.3,3.514
2015/01/06,19:30:01,344,348,355,3.4,4.8,6.3,18.6,72.2,1007.9,0.00,0,0.0,////,0.0,0,0.0,////,17.4,0.0,12.3,3.513
2015/01/06,19:40:01,343,347,353,6.0,6.3,6.5,18.6,72.1,1007.8,0.00,0,0.0,////,0.0,0,0.0,////,17.5,0.0,12.3,3.513
2015/01/06,19:50:01,358,001,005,3.6,4.1,4.7,18.7,73.9,1008.0,////,////,////,////,////,////,////,////,17.5,0.0,12.3,3.513
2015/01/06,20:00:01,355,357,000,4.7,5.0,5.2,18.6,72.9,1007.9,0.00,0,0.0,////,0.0,0,0.0,////,17.5,0.0,12.3,3.513
2015/01/06,20:10:01,336,351,012,3.6,3.8,4.0,18.6,75.1,1007.8,0.00,0,0.0,////,0.0,0,0.0,////,17.7,0.0,12.3,3.515
2015/01/06,20:20:01,359,007,012,5.3,5.7,6.1,18.6,75.4,1007.8,0.00,0,0.0,////,0.0,0,0.0,////,17.4,0.0,12.3,3.513
2015/01/06,20:30:01,347,351,354,5.4,5.7,6.0,18.7,74.9,1007.9,0.00,0,0.0,////,0.0,0,0.0,////,17.7,0.0,12.3,3.513
2015/01/06,20:40:01,345,353,002,3.6,4.0,4.5,18.6,72.7,1007.9,0.00,0,0.0,////,0.0,0,0.0,////,17.7,0.0,12.3,3.513
2015/01/06,20:50:01,336,341,346,3.8,4.5,5.0,18.7,72.5,1008.0,0.00,0,0.0,////,0.0,0,0.0,////,17.5,0.0,12.3,3.513